(134988) = 2001 FX115

Discovered at Anderson Mesa on 2001-03-19 by LONEOS.

Orbit

Orbit type: Main Belt

Note: WebGL enabled browser required.

epoch2024-03-31.0
epoch JD2460400.5
perihelion date2022-09-08.71528
perihelion JD2459831.21528
argument of perihelion (°)322.33494
ascending node (°)321.91113
inclination (°)2.77796
eccentricity0.2715281
perihelion distance (AU)1.8770837
Tisserand w.r.t. Jupiter3.4
ΔV w.r.t. Earth (km/sec)8.7
semimajor axis (AU)2.5767415
mean anomaly (°)135.65228
mean daily motion (°/day)0.23828550
aphelion distance (AU)3.276
period (years)4.14
P-vector [x]0.24652982
P-vector [y]-0.87696889
P-vector [z]-0.41249073
Q-vector [x]0.96867393
Q-vector [y]0.20984773
Q-vector [z]0.13279590
absolute magnitude15.75
phase slope0.15
uncertainty0
referenceMPEC 2024-C60
observations used913
oppositions17
arc length (days)8358
first opposition used2001
last opposition used2024
residual rms (arc-secs)0.65
perturbers coarse indicatorM-v
perturbers precise indicator003Ek
first observation date used2001-03-19.0
last observation date used2024-02-05.0
computer nameMPCLINUX
JD of orbit computation2456966.718161
perihelion JD uncertainty (days)3.1185E-05
argument of perihelion uncertainty (°)3.9377E-05
ascending node uncertainty (°)3.7874E-05
inclination uncertainty (°)4.0435E-06
eccentricity uncertainty 3.3777E-08
perihelion distance uncertainty (AU)9.1499E-08
Minimum Orbit Intersection Distances (in AU)
for orbit epoch: 2460200.5, reference: E2024-C60
Mercury1.42406
Venus1.15325
Earth0.86482
Mars0.43766
Jupiter1.89448
Saturn5.79241
Uranus15.4038
Neptune26.8088

Observations

935 total observations over interval: 2001 03 19.26409 – 2024 02 05.147463
These data are available for download (format description).

Date (UT) J2000 RA J2000 Dec Magn Location Ref
2001 03 19.26409 12 27 47.40 -06 22 21.8 18.9 R 699 – Lowell Observatory-LONEOS MPS 28478
2001 03 19.30072 12 27 45.39 -06 22 12.4   699 – Lowell Observatory-LONEOS MPS 28478
2001 03 19.33746 12 27 43.27 -06 22 03.4   699 – Lowell Observatory-LONEOS MPS 28478
2001 03 19.37431 12 27 41.23 -06 21 53.7   699 – Lowell Observatory-LONEOS MPS 28478
2001 03 21.40091 12 25 51.20 -06 12 55.0 19.9   608 – Haleakala-AMOS MPS 28478
2001 03 21.41122 12 25 50.61 -06 12 52.6 20.3   608 – Haleakala-AMOS MPS 28478
2001 03 21.42203 12 25 50.01 -06 12 49.4 20.5   608 – Haleakala-AMOS MPS 28478
2001 03 23.27700 12 24 06.79 -06 04 15.3 18.9 R 699 – Lowell Observatory-LONEOS MPS 28478
2001 03 23.29258 12 24 05.85 -06 04 11.5   699 – Lowell Observatory-LONEOS MPS 28478
2001 03 23.30816 12 24 04.97 -06 04 06.4   699 – Lowell Observatory-LONEOS MPS 28478
2001 03 23.32376 12 24 04.36 -06 04 05.0   699 – Lowell Observatory-LONEOS MPS 28478
2001 03 24.32035 12 23 07.92 -05 59 17.5 18.9   704 – Lincoln Laboratory ETS, New Mexico MPS 28478
2001 03 24.34654 12 23 06.34 -05 59 10.6 18.9   704 – Lincoln Laboratory ETS, New Mexico MPS 28478
2001 03 24.35961 12 23 05.40 -05 59 05.4 19.2   704 – Lincoln Laboratory ETS, New Mexico MPS 28478
2001 04 23.15113 11 57 14.09 -03 30 55.9 19.1 R 699 – Lowell Observatory-LONEOS MPS 30263
2001 04 23.18860 11 57 12.57 -03 30 47.1   699 – Lowell Observatory-LONEOS MPS 30263
2001 04 23.22627 11 57 11.18 -03 30 37.1   699 – Lowell Observatory-LONEOS MPS 30263
2001 04 23.26406 11 57 09.52 -03 30 27.4   699 – Lowell Observatory-LONEOS MPS 30263
2002 10 04.32748 01 39 54.45 +14 35 34.5 19.0   704 – Lincoln Laboratory ETS, New Mexico MPS 69707
2002 10 04.35839 01 39 52.63 +14 35 27.7 19.8   704 – Lincoln Laboratory ETS, New Mexico MPS 69707
2002 10 04.37392 01 39 51.83 +14 35 23.5 19.8   704 – Lincoln Laboratory ETS, New Mexico MPS 69707
2002 10 04.38936 01 39 50.93 +14 35 19.5 19.3   704 – Lincoln Laboratory ETS, New Mexico MPS 69707
2002 10 09.32506 01 35 07.42 +14 13 15.4 19.0   704 – Lincoln Laboratory ETS, New Mexico MPS 67756
2002 10 09.34064 01 35 06.51 +14 13 11.3 19.7   704 – Lincoln Laboratory ETS, New Mexico MPS 67756
2002 10 09.35624 01 35 05.53 +14 13 06.8 19.6   704 – Lincoln Laboratory ETS, New Mexico MPS 67756
2002 10 09.37228 01 35 04.57 +14 13 01.8 19.1   704 – Lincoln Laboratory ETS, New Mexico MPS 67756
2002 10 09.38796 01 35 03.60 +14 12 58.6 19.2   704 – Lincoln Laboratory ETS, New Mexico MPS 67756
2002 10 12.25691 01 32 14.85 +13 59 00.7 19.3   704 – Lincoln Laboratory ETS, New Mexico MPS 67756
2002 10 12.27334 01 32 13.92 +13 58 55.1 19.8   704 – Lincoln Laboratory ETS, New Mexico MPS 67756
2002 10 12.29019 01 32 12.91 +13 58 50.3 19.3   704 – Lincoln Laboratory ETS, New Mexico MPS 67756
2002 10 12.30664 01 32 11.95 +13 58 45.4 20.4   704 – Lincoln Laboratory ETS, New Mexico MPS 67756
2002 10 12.32339 01 32 10.93 +13 58 42.6 19.9   704 – Lincoln Laboratory ETS, New Mexico MPS 67756
2004 01 30.10357 06 23 53.13 +25 37 41.4 21.3 V 691 – Steward Observatory, Kitt Peak-Spacewatch MPS 97694
2004 01 30.13059 06 23 51.93 +25 37 41.0 21.1 V 691 – Steward Observatory, Kitt Peak-Spacewatch MPS 97694
2004 01 30.16480 06 23 50.49 +25 37 39.9 21.3 V 691 – Steward Observatory, Kitt Peak-Spacewatch MPS 97694
2005 03 08.29449 11 30 49.96 +00 51 10.1 18.8   704 – Lincoln Laboratory ETS, New Mexico MPS 128965
2005 03 08.30650 11 30 49.28 +00 51 13.6 19.4   704 – Lincoln Laboratory ETS, New Mexico MPS 128965
2005 03 08.32982 11 30 47.90 +00 51 20.2 19.4   704 – Lincoln Laboratory ETS, New Mexico MPS 128965
2005 03 08.34146 11 30 47.29 +00 51 23.8 19.1   704 – Lincoln Laboratory ETS, New Mexico MPS 128965
2005 03 11.30426 11 28 00.62 +01 06 00.5 18.8 C 704 – Lincoln Laboratory ETS, New Mexico MPS 294191
2005 03 11.30959 11 28 00.15 +01 06 01.6 18.2 R G96 – Mt. Lemmon Survey MPS 128965
2005 03 11.31629 11 27 59.75 +01 06 03.4 18.4 R G96 – Mt. Lemmon Survey MPS 128965
2005 03 11.31803 11 27 59.69 +01 06 04.0 18.9 C 704 – Lincoln Laboratory ETS, New Mexico MPS 294191
2005 03 11.32294 11 27 59.35 +01 06 05.6 18.3 R G96 – Mt. Lemmon Survey MPS 128965
2005 03 11.32964 11 27 58.96 +01 06 07.5 18.5 R G96 – Mt. Lemmon Survey MPS 128965
2005 03 11.35776 11 27 57.34 +01 06 15.8 19.1 C 704 – Lincoln Laboratory ETS, New Mexico MPS 294191
2005 03 13.17498 11 26 14.13 +01 15 26.5 19.3 V 691 – Steward Observatory, Kitt Peak-Spacewatch MPS 128965
2005 03 13.20163 11 26 12.56 +01 15 34.6 19.5 V 691 – Steward Observatory, Kitt Peak-Spacewatch MPS 128965
2005 03 13.22904 11 26 10.96 +01 15 43.0 19.3 V 691 – Steward Observatory, Kitt Peak-Spacewatch MPS 128965
2005 03 14.27293 11 25 11.21 +01 21 02.6 18.9   704 – Lincoln Laboratory ETS, New Mexico MPS 128965
2005 03 14.28378 11 25 10.55 +01 21 05.8 19.2   704 – Lincoln Laboratory ETS, New Mexico MPS 128965
2005 03 14.29527 11 25 09.86 +01 21 09.4 19.0   704 – Lincoln Laboratory ETS, New Mexico MPS 128966
2005 03 14.30612 11 25 09.06 +01 21 13.6 19.6   704 – Lincoln Laboratory ETS, New Mexico MPS 128966
2005 03 14.31753 11 25 08.45 +01 21 15.8 19.8   704 – Lincoln Laboratory ETS, New Mexico MPS 128966
2005 03 17.39233 11 22 12.56 +01 37 03.3 18.9 R 703 – Catalina Sky Survey MPS 128966
2005 03 17.39938 11 22 12.24 +01 37 05.4 18.9 R 703 – Catalina Sky Survey MPS 128966
2005 03 17.40642 11 22 11.69 +01 37 07.0 18.8 R 703 – Catalina Sky Survey MPS 128966
2005 03 17.41345 11 22 11.41 +01 37 10.1 18.5 R 703 – Catalina Sky Survey MPS 128966
2005 04 09.27696 11 03 11.14 +03 23 30.9 18.9 R G96 – Mt. Lemmon Survey MPS 131576
2005 04 09.28229 11 03 10.92 +03 23 32.0 19.0 R G96 – Mt. Lemmon Survey MPS 131576
2005 04 09.28764 11 03 10.72 +03 23 33.2 19.3 R G96 – Mt. Lemmon Survey MPS 131576
2005 04 09.29292 11 03 10.51 +03 23 34.4 19.1 R G96 – Mt. Lemmon Survey MPS 131576
2005 05 12.17086 10 56 28.57 +04 05 21.9 19.3 R G96 – Mt. Lemmon Survey MPS 133882
2005 05 12.17910 10 56 28.69 +04 05 21.5 19.4 R G96 – Mt. Lemmon Survey MPS 133882
2005 05 12.18729 10 56 28.80 +04 05 20.6 19.8 R G96 – Mt. Lemmon Survey MPS 133882
2005 05 12.19551 10 56 28.90 +04 05 20.3 19.6 R G96 – Mt. Lemmon Survey MPS 133882
2006 07 21.42347 00 41 37.21 +05 58 58.8 20.1 V 703 – Catalina Sky Survey MPS 174811
2006 07 21.43116 00 41 37.53 +05 59 02.7 18.9 V 703 – Catalina Sky Survey MPS 174811
2006 07 21.43885 00 41 37.82 +05 59 03.9 19.0 V 703 – Catalina Sky Survey MPS 174811
2006 07 21.44660 00 41 38.14 +05 59 07.9 19.1 V 703 – Catalina Sky Survey MPS 174811
2006 08 17.46115 00 48 24.98 +07 38 03.3 19.2 R 644 – Palomar Mountain/NEAT MPS 175938
2006 08 17.47101 00 48 24.83 +07 38 04.1 19.1 R 644 – Palomar Mountain/NEAT MPS 175938
2006 08 17.48216 00 48 24.72 +07 38 04.9 19.0 R 644 – Palomar Mountain/NEAT MPS 175938
2006 08 28.34603 00 44 50.07 +07 39 00.3 19.3   704 – Lincoln Laboratory ETS, New Mexico MPS 176839
2006 08 28.35662 00 44 49.80 +07 38 59.4 19.0   704 – Lincoln Laboratory ETS, New Mexico MPS 176839
2006 08 28.36701 00 44 49.38 +07 38 59.6 19.8   704 – Lincoln Laboratory ETS, New Mexico MPS 176839
2006 08 28.37124 00 44 49.34 +07 38 59.6 18.7 V 703 – Catalina Sky Survey MPS 176839
2006 08 28.37747 00 44 49.07 +07 38 59.1 19.0   704 – Lincoln Laboratory ETS, New Mexico MPS 176839
2006 08 28.37932 00 44 49.05 +07 38 58.9 18.8 V 703 – Catalina Sky Survey MPS 176839
2006 08 28.38737 00 44 48.80 +07 38 58.5 18.7 V 703 – Catalina Sky Survey MPS 176839
2006 08 28.39544 00 44 48.55 +07 38 57.9 19.2 V 703 – Catalina Sky Survey MPS 176839
2006 08 30.29820 00 43 49.42 +07 36 42.5 19.8   704 – Lincoln Laboratory ETS, New Mexico MPS 176839
2006 08 30.30944 00 43 48.87 +07 36 39.7 20.0   704 – Lincoln Laboratory ETS, New Mexico MPS 176839
2006 08 30.32066 00 43 48.52 +07 36 39.6 19.4   704 – Lincoln Laboratory ETS, New Mexico MPS 176839
2006 08 30.33170 00 43 48.13 +07 36 38.3 19.7   704 – Lincoln Laboratory ETS, New Mexico MPS 176839
2006 08 30.34281 00 43 47.68 +07 36 37.7 19.3   704 – Lincoln Laboratory ETS, New Mexico MPS 176839
2006 09 16.18398 00 31 17.07 +06 48 38.0 19.0 R H07 – 7300 Observatory, Cloudcroft MPS 180658
2006 09 16.20537 00 31 15.97 +06 48 31.4 19.8 R H07 – 7300 Observatory, Cloudcroft MPS 180658
